RAM790T GMMN-LFBO

Flight info

Callsign RAM790T
Flight time N/A
Altitude 38000
Route TOLSI UG5 KORIS DCT XULIM DCT VJF DCT MAR DCT ALCOL DCT LOGRO DCT ETANA DCT VTB DCT PALIO DCT SEGRE DCT YAKXU DCT RONNY DCT TOPTU
Aircraft E190/M-SDE3GILORVW/S

Departure

Time 2026-05-03 20:39
Airport Mohammed V International Airport (GMMN)

Arrival

Time N/A
Airport Toulouse-Blagnac Airport (LFBO)
Time Latitude Longitude Altitude Speed Heading
2026-05-03 20:15 33.37269 -7.58235 652 ft 0 kts 75°
2026-05-03 20:16 33.37269 -7.58236 652 ft 0 kts 75°
2026-05-03 20:25 33.37263 -7.58264 652 ft 4 kts 78°
2026-05-03 20:25 33.37258 -7.58296 652 ft 4 kts 84°
2026-05-03 20:25 33.37257 -7.58328 652 ft 4 kts 96°
2026-05-03 20:25 33.37259 -7.58343 652 ft 1 kts 99°
2026-05-03 20:26 33.37259 -7.58344 652 ft 0 kts 99°
2026-05-03 20:33 33.37257 -7.58337 652 ft 3 kts 111°
2026-05-03 20:33 33.37225 -7.58313 654 ft 8 kts 159°
2026-05-03 20:33 33.37152 -7.58288 652 ft 13 kts 165°
2026-05-03 20:34 33.37052 -7.58254 652 ft 16 kts 163°
2026-05-03 20:34 33.36947 -7.58251 653 ft 16 kts 232°
2026-05-03 20:34 33.36912 -7.58379 652 ft 17 kts 254°
2026-05-03 20:34 33.36839 -7.58459 652 ft 16 kts 167°
2026-05-03 20:35 33.36724 -7.58420 651 ft 18 kts 164°
2026-05-03 20:35 33.36602 -7.58378 651 ft 19 kts 165°
2026-05-03 20:35 33.36471 -7.58334 651 ft 20 kts 164°
2026-05-03 20:35 33.36332 -7.58285 651 ft 22 kts 163°
2026-05-03 20:36 33.36184 -7.58234 651 ft 23 kts 165°
2026-05-03 20:36 33.36029 -7.58183 651 ft 24 kts 165°
2026-05-03 20:36 33.35868 -7.58128 651 ft 25 kts 163°
2026-05-03 20:36 33.35700 -7.58072 651 ft 26 kts 165°
2026-05-03 20:37 33.35527 -7.58010 651 ft 26 kts 164°
2026-05-03 20:37 33.35349 -7.57949 653 ft 27 kts 166°
2026-05-03 20:37 33.35236 -7.58082 651 ft 26 kts 254°
2026-05-03 20:37 33.35253 -7.58265 653 ft 23 kts 330°
2026-05-03 20:38 33.35412 -7.58327 649 ft 25 kts 345°
2026-05-03 20:38 33.35710 -7.58430 646 ft 78 kts 343°
2026-05-03 20:38 33.36455 -7.58686 653 ft 142 kts 343°
2026-05-03 20:38 33.37482 -7.59064 1117 ft 163 kts 342°
2026-05-03 20:39 33.38647 -7.59543 1768 ft 190 kts 340°
2026-05-03 20:39 33.39958 -7.59835 2857 ft 194 kts 355°
2026-05-03 20:39 33.41351 -7.59617 3710 ft 214 kts 26°
2026-05-03 20:39 33.42633 -7.58617 4600 ft 239 kts 35°
2026-05-03 20:40 33.44045 -7.57241 5167 ft 272 kts 43°
2026-05-03 20:40 33.45351 -7.55702 6856 ft 260 kts 44°
2026-05-03 20:40 33.46600 -7.54162 7428 ft 265 kts 46°
2026-05-03 20:40 33.47888 -7.52591 7487 ft 262 kts 42°
2026-05-03 20:41 33.49165 -7.51070 7460 ft 255 kts 44°
2026-05-03 20:41 33.50386 -7.49563 7486 ft 249 kts 44°
2026-05-03 20:41 33.51581 -7.48043 7682 ft 253 kts 47°
2026-05-03 20:41 33.52880 -7.46444 7876 ft 285 kts 44°
2026-05-03 20:42 33.54378 -7.44759 7998 ft 300 kts 34°
2026-05-03 20:42 33.56191 -7.43593 8073 ft 300 kts 21°
2026-05-03 20:42 33.58130 -7.42721 8128 ft 297 kts 16°
2026-05-03 20:42 33.60121 -7.42014 8693 ft 297 kts 13°
2026-05-03 20:43 33.62131 -7.41370 9468 ft 301 kts 12°
2026-05-03 20:43 33.64183 -7.40746 10157 ft 309 kts 11°
2026-05-03 20:43 33.66344 -7.40193 10510 ft 326 kts
2026-05-03 20:43 33.68616 -7.39743 11066 ft 334 kts
2026-05-03 20:44 33.70923 -7.39291 11772 ft 338 kts
2026-05-03 20:44 33.73262 -7.38842 12478 ft 342 kts
2026-05-03 20:44 33.75629 -7.38385 13218 ft 347 kts
2026-05-03 20:44 33.78024 -7.37926 13924 ft 351 kts
2026-05-03 20:45 33.80448 -7.37459 14571 ft 354 kts
2026-05-03 20:45 33.82895 -7.36986 15226 ft 358 kts
2026-05-03 20:45 33.85366 -7.36513 15859 ft 361 kts
2026-05-03 20:45 33.87857 -7.36032 16468 ft 364 kts
2026-05-03 20:46 33.90373 -7.35548 17072 ft 367 kts
2026-05-03 20:46 33.92908 -7.35058 17665 ft 371 kts
2026-05-03 20:46 33.95464 -7.34565 18257 ft 374 kts
2026-05-03 20:46 33.98045 -7.34066 18779 ft 377 kts
2026-05-03 20:47 34.00644 -7.33564 19306 ft 381 kts
2026-05-03 20:47 34.03273 -7.33056 19830 ft 384 kts
2026-05-03 20:47 34.05923 -7.32542 20383 ft 387 kts
2026-05-03 20:47 34.08591 -7.31967 20910 ft 395 kts
2026-05-03 20:48 34.11247 -7.31000 21436 ft 402 kts 12°
2026-05-03 20:48 34.13898 -7.29848 21916 ft 408 kts 14°
2026-05-03 20:48 34.16508 -7.28406 22376 ft 416 kts 20°
2026-05-03 20:48 34.19111 -7.26851 22816 ft 420 kts 20°
2026-05-03 20:49 34.21729 -7.25242 23250 ft 423 kts 20°
2026-05-03 20:49 34.24363 -7.23620 23664 ft 427 kts 20°
2026-05-03 20:49 34.27014 -7.21982 24065 ft 429 kts 20°
2026-05-03 20:49 34.29650 -7.20353 24449 ft 430 kts 20°
2026-05-03 20:50 34.32331 -7.18698 24810 ft 433 kts 20°
2026-05-03 20:50 34.35023 -7.17032 25174 ft 435 kts 20°
2026-05-03 20:50 34.37735 -7.15354 25540 ft 437 kts 20°
2026-05-03 20:50 34.40455 -7.13671 25893 ft 440 kts 20°
2026-05-03 20:51 34.43156 -7.11996 26252 ft 442 kts 20°
2026-05-03 20:51 34.45909 -7.10291 26593 ft 444 kts 20°
2026-05-03 20:51 34.48673 -7.08575 26948 ft 446 kts 20°
2026-05-03 20:51 34.51432 -7.06862 27292 ft 449 kts 20°
2026-05-03 20:52 34.54225 -7.05126 27630 ft 452 kts 20°
2026-05-03 20:52 34.57041 -7.03369 27940 ft 455 kts 20°
2026-05-03 20:52 34.59826 -7.01640 28249 ft 456 kts 19°
2026-05-03 20:52 34.62676 -6.99876 28547 ft 459 kts 20°
2026-05-03 20:53 34.65533 -6.98109 28839 ft 461 kts 20°
2026-05-03 20:53 34.68373 -6.96347 29124 ft 463 kts 20°
2026-05-03 20:53 34.70289 -6.95160 29318 ft 464 kts 19°
2026-05-03 20:53 34.74121 -6.92780 29698 ft 467 kts 19°
2026-05-03 20:54 34.76087 -6.91561 29857 ft 470 kts 20°
2026-05-03 20:54 34.81984 -6.87890 30231 ft 478 kts 19°
2026-05-03 20:54 34.84912 -6.86070 30534 ft 478 kts 19°
2026-05-03 20:55 34.87889 -6.84214 30823 ft 478 kts 19°
2026-05-03 20:55 34.90854 -6.82365 31123 ft 478 kts 19°
2026-05-03 20:55 34.93818 -6.80515 31433 ft 477 kts 19°
2026-05-03 20:55 34.96746 -6.78685 31735 ft 477 kts 19°
2026-05-03 20:56 34.99713 -6.76832 32031 ft 477 kts 19°
2026-05-03 20:56 35.02679 -6.74975 32313 ft 477 kts 19°
2026-05-03 20:56 35.05603 -6.73145 32580 ft 477 kts 19°
2026-05-03 20:56 35.08574 -6.71282 32870 ft 477 kts 19°
2026-05-03 20:57 35.11504 -6.69445 33121 ft 477 kts 19°
2026-05-03 20:57 35.14472 -6.67583 33370 ft 477 kts 19°
2026-05-03 20:57 35.17428 -6.65724 33621 ft 477 kts 19°
2026-05-03 20:57 35.20350 -6.63888 33879 ft 477 kts 19°
2026-05-03 20:58 35.23306 -6.62027 34112 ft 476 kts 18°
2026-05-03 20:58 35.26265 -6.60164 34342 ft 476 kts 19°
2026-05-03 20:58 35.29177 -6.58329 34586 ft 475 kts 19°
2026-05-03 20:58 35.32131 -6.56465 34823 ft 474 kts 18°
2026-05-03 20:59 35.35075 -6.54605 35086 ft 474 kts 18°
2026-05-03 20:59 35.37976 -6.52774 35326 ft 473 kts 18°
2026-05-03 20:59 35.40918 -6.50913 35577 ft 473 kts 18°
2026-05-03 20:59 35.43854 -6.49054 35829 ft 472 kts 18°
2026-05-03 21:00 35.46745 -6.47224 36075 ft 471 kts 18°
2026-05-03 21:00 35.48685 -6.45992 36241 ft 471 kts 18°
2026-05-03 21:00 35.52552 -6.43541 36585 ft 469 kts 18°
2026-05-03 21:00 35.55461 -6.41693 36816 ft 468 kts 18°
2026-05-03 21:01 35.58333 -6.39869 37052 ft 468 kts 19°
2026-05-03 21:01 35.61246 -6.38015 37310 ft 468 kts 18°